This demonstration page uses our WeatherBlox Daily Observations layout. Learn more.

Left ArrowRight Arrow

Hourly Observations for June 17, 2016

Temp ( °F °C ) Dew Point ( °F °C ) Humidity (%) Winds ( mph kmh ) Pressure ( in mb ) Visibility ( mi km ) Precip ( " mm )
12:42 am 00:42 Mostly Cloudy with Nearby Thunderstorms 82 28 73 23 74 74 NE 17 28 29.88 1012 10 16 0.00 0.00
12:52 am 00:52 Mostly Cloudy with Nearby Thunderstorms 79 26.1 71 21.7 77 77 NE 15 24 29.89 1012 10 16 0.00 0.00
1:00 am 01:00 Cloudy with Thunderstorms 79 26 72 22 79 79 ENE 13 20 29.88 1012 10 16 0.00 0.00
1:46 am 01:46 Partly Cloudy 79 26 72 22 79 79 E 13 20 29.91 1013 10 16 0.00 0.00
1:47 am 01:47 Partly Cloudy 79 26 72 22 79 79 ENE 14 22 29.91 1013 10 16 0.00 0.00
2:10 am 02:10 Mostly Clear with Nearby Thunderstorms 77 25 72 22 83 83 ESE 8 13 29.91 1013 10 16 0.00 0.00
2:25 am 02:25 Mostly Clear 77 25 71 21.7 82 82 SE 8 13 29.91 1013 10 16 0.00 0.00
2:38 am 02:38 Mostly Clear with Nearby Thunderstorms 77 25 72 22 83 83 SSE 6 9 29.88 1012 10 16 0.00 0.00
2:52 am 02:52 Clear 78 25.6 72 22.2 82 82 SW 9 15 29.89 1012 10 16 0.00 0.00
3:52 am 03:52 Partly Cloudy 82 27.8 71 21.7 69 69 ESE 20 31 29.84 1011 10 16 0.00 0.03
4:52 am 04:52 Mostly Cloudy with Nearby Thunderstorms 78 25.6 67 19.4 69 69 S 7 11 29.88 1012 10 16 0.00 0.03
5:08 am 05:08 Mostly Clear 77 25 66 19 69 69 SW 6 9 29.88 1012 10 16 0.00 0.00
5:52 am 05:52 Mostly Clear 77 25 69 20.6 77 77 SW 5 7 29.89 1012 10 16 0.00 0.00
6:52 am 06:52 Sunny 78 25.6 72 22.2 82 82 VRB 3 6 29.91 1013 10 16 0.00 0.00
7:52 am 07:52 Sunny 79 26.1 72 22.2 79 79 S 3 6 29.93 1013 10 16 0.00 0.00
8:52 am 08:52 Sunny 84 28.9 73 22.8 70 70 W 3 6 29.93 1014 10 16 0.00 0.00
9:52 am 09:52 Sunny 87 30.6 74 23.3 65 65 Calm 29.94 1014 10 16 0.00 0.00
10:50 am 10:50 Mostly Cloudy 84 29 73 23 70 70 S 9 15 29.94 1014 10 16 0.00 0.00
10:52 am 10:52 Mostly Cloudy 85 29.4 74 23.3 70 70 S 10 17 29.95 1014 10 16 0.00 0.00
11:00 am 11:00 Mostly Cloudy 86 30 75 24 70 70 S 8 13 29.91 1013 10 16 0.00 0.00
11:52 am 11:52 Partly Cloudy 89 31.7 74 23.3 61 61 ESE 6 9 29.94 1014 10 16 0.00 0.00
12:52 pm 12:52 Sunny 91 32.8 74 23.3 57 57 E 6 9 29.93 1014 10 16 0.00 0.00
1:52 pm 13:52 Mostly Cloudy 91 32.8 73 22.8 56 56 NE 8 13 29.93 1014 10 16 0.00 0.00
2:52 pm 14:52 Mostly Sunny 95 35 72 22.2 47 47 ENE 8 13 29.92 1013 10 16 0.00 0.00
3:52 pm 15:52 Mostly Sunny 94 34.4 70 21.1 46 46 NNE 5 7 29.91 1013 10 16 0.00 0.00
4:52 pm 16:52 Sunny 94 34.4 69 20.6 44 44 ENE 6 9 29.89 1012 10 16 0.00 0.00
5:52 pm 17:52 Sunny 91 32.8 73 22.8 56 56 ENE 9 15 29.89 1012 10 16 0.00 0.00
6:52 pm 18:52 Sunny 90 32.2 73 22.8 58 58 ENE 10 17 29.90 1012 10 16 0.00 0.00
7:52 pm 19:52 Sunny 88 31.1 73 22.8 61 61 NE 8 13 29.90 1013 10 16 0.00 0.00
8:52 pm 20:52 Clear 85 29.4 72 22.2 65 65 E 7 11 29.91 1013 10 16 0.00 0.00
9:52 pm 21:52 Clear 84 28.9 71 21.7 65 65 E 8 13 29.93 1014 10 16 0.00 0.00
10:52 pm 22:52 Clear 82 27.8 71 21.7 69 69 E 9 15 29.96 1015 10 16 0.00 0.00
11:52 pm 23:52 Partly Cloudy 80 26.7 68 20 67 67 ESE 13 20 29.98 1015 10 16 0.00 0.00

Powered by AerisWeather